This demonstration page uses our WeatherBlox Daily Observations layout. Learn more.

39.92423, -83.80882

Hourly Observations for April 6, 2015

Temp ( °F °C ) Dew Point ( °F °C ) Humidity (%) Winds ( mph kmh ) Pressure ( in mb ) Visibility ( mi km ) Precip ( " mm )
12:56 am 00:56 Clear 43 6.1 27 -2.7 54 54 SE 5 7 30.14 1021 8 12.87472 0 0
1:56 am 01:56 Clear 37 2.7 28 -2.2 70 70 SSE 6 9 30.14 1021 8 12.87472 0 0
2:56 am 02:56 Clear 44 6.6 28 -2.2 54 54 SSE 5 7 30.13 1020 8 12.87472 0 0
3:56 am 03:56 Clear 45 7.2 28 -2.2 52 52 S 5 7 30.13 1020 8 12.87472 0 0
4:56 am 04:56 Mostly Clear 48 8.8 27 -2.7 45 45 S 6 9 30.13 1020 8 12.87472 0 0
5:56 am 05:56 Cloudy 50 10 29 -1.6 45 45 S 8 13 30.12 1020 8 12.87472 0 0
6:56 am 06:56 Cloudy 50 10 32 0 50 50 S 8 13 30.13 1020 8 12.87472 0 0
7:56 am 07:56 Cloudy with Light Rain 51 10.5 34 1.1 52 52 S 8 13 30.14 1021 5 8.0467 0 0.0254
8:56 am 08:56 Mostly Cloudy with Haze 53 11.6 34 1.1 49 49 S 9 15 30.12 1020 6 9.65604 0 0.0254
9:56 am 09:56 Cloudy with Haze 57 13.8 36 2.2 46 46 SSW 10 17 30.12 1020 6 9.65604 0 0
10:56 am 10:56 Cloudy 59 15 38 3.3 46 46 SSW 10 17 30.13 1020 7 11.26538 0 0
11:56 am 11:56 Mostly Cloudy 61 16.1 39 3.8 44 44 SSW 15 24 30.12 1020 7 11.26538 0 0
12:56 pm 12:56 Mostly Cloudy with Haze 62 16.6 43 6.1 50 50 WSW 20 31 30.12 1020 6 9.65604 0 0
1:56 pm 13:56 Mostly Cloudy 64 17.7 44 6.6 48 48 SW 12 19 30.11 1020 7 11.26538 0 0
2:56 pm 14:56 Cloudy 60 15.5 47 8.3 62 62 SW 7 11 30.1 1019 7 11.26538 0 0
3:56 pm 15:56 Cloudy 63 17.2 45 7.2 52 52 S 12 19 30.07 1018 7 11.26538 0 0
4:56 pm 16:56 Cloudy with Haze 64 17.7 47 8.3 54 54 S 6 9 30.05 1018 6 9.65604 0 0
5:56 pm 17:56 Cloudy with Haze 59 15 53 11.6 80 80 WSW 5 7 30.06 1018 5 8.0467 0.01 0.254
6:22 pm 18:22 Cloudy with Light Rain 57 14 54 12 88 88 SW 9 15 30.06 1018 2 3.21868 0.04 1.016
6:26 pm 18:26 Cloudy with Rain 57 14 54 12 88 88 WSW 8 13 30.09 1019 1.25 2.011675 0.06 1.524
6:39 pm 18:39 Cloudy with Light Rain 55 13 54 12 94 94 WSW 7 11 30.09 1019 2 3.21868 0.11 2.794
6:56 pm 18:56 Cloudy with Mist and Fog 56 13.3 55 12.7 96 96 SW 3 6 30.07 1018 4 6.43736 0.11 2.794
7:56 pm 19:56 Cloudy with Mist and Fog 55 12.7 55 12.7 100 100 ESE 5 7 30.06 1018 4 6.43736 0 0.0254
8:44 pm 20:44 Cloudy with Light Rain 55 13 55 13 100 100 NE 5 7 30.06 1018 2.5 4.02335 0.03 0.762
8:56 pm 20:56 Mostly Cloudy with Mist and Fog 55 12.7 55 12.7 100 100 NNE 5 7 30.08 1019 5 8.0467 0.03 0.762
9:56 pm 21:56 Cloudy with Mist and Fog 54 12.2 54 12.2 100 100 ENE 5 7 30.09 1019 4 6.43736 0 0
10:56 pm 22:56 Cloudy with Mist and Fog 54 12.2 54 12.2 100 100 ESE 6 9 30.09 1019 5 8.0467 0 0
11:56 pm 23:56 Cloudy with Mist and Fog 54 12.2 54 12.2 100 100 ESE 7 11 30.08 1019 4 6.43736 0 0

Powered by AerisWeather